Current weather by "City, St" or "zip code"  
 
Advertise Here

Current Conditions: Fond Du Lac County Airport, WI

Fog/Mist


36.0 F

Last Updated on Feb 28 2021, 5:53 am CST
Humidity: 89%
Wind Speed: SE 9.2 mph
Barometer 29.77 in
Dewpoint: 33.1 F
Visibility: 4.00 mi
Precip: --
Heat Index: NA
Wind Chill: 29 F
Current conditions at:

Fond Du Lac County Airport, WI (KFLD)

Lat: 43.76955 Lon: 88.49072

Local Radar Image active severe weather and emergency alerts image image weather storm and storm spotter reports image weather observation monitoring service image
Local
Radar
Active
Alerts
Storm Reports Obs
Monitoring

Sign-up For Email & Text Message Weather Alert Notification Services


Advertise Here

Observation History for Fond Du Lac County Airport, WI


Time Wind
(mph)
Vis
(mi)
Weather Precip (in) Temperature (F) Relative
Humidity
Wind
Chill
(F)
Heat
Index
(F)
Pressure
Air Dwpt altimeter
(in)
sea level
(mb)
Rmks
5:53 am CST SE 9.2 4.00 Fog/Mist -- 36.0 33.1 89% 29 NA 29.77 1008.8
4:53 am CST S 4.6 4.00 Fog/Mist -- 34.0 32.0 92% 30 NA 29.81 1010.2
3:53 am CST SE 3.5 1.75 Fog/Mist -- 29.0 27.0 92% NA NA 29.86 1011.8
2:53 am CST N 0.0 3.00 Fog/Mist -- 33.0 30.0 89% NA NA 29.90 1013.1
1:53 am CST SE 5.8 5.00 Fog/Mist -- 34.0 30.0 85% 29 NA 29.94 1014.6
12:53 am CST SE 8.1 9.00 Partly Cloudy -- 32.0 27.0 82% 25 NA 29.96 1015.3
11:53 pm CST N 0.0 10.00 Partly Cloudy -- 32.0 27.0 82% NA NA 29.99 1016.3
10:53 pm CST N 0.0 10.00 Partly Cloudy -- 35.0 27.0 72% NA NA 30.00 1016.6
9:53 pm CST N 0.0 10.00 Fair -- 35.0 27.0 72% NA NA 30.00 1016.8
8:53 pm CST S 3.5 10.00 Fair -- 37.0 28.0 70% NA NA 30.01 1017.1
7:53 pm CST S 4.6 10.00 Fair -- 36.0 28.0 73% 32 NA 30.01 1017.1
6:53 pm CST S 4.6 10.00 Fair -- 38.0 28.9 70% 34 NA 30.01 1017.3
5:53 pm CST S 5.8 10.00 Fair -- 41.0 30.0 65% 37 NA 30.02 1017.3
4:53 pm CST S 5.8 10.00 Fair -- 41.0 30.9 67% 37 NA 30.02 1017.3
3:53 pm CST S 5.8 10.00 Fair -- 44.0 32.0 63% 41 NA 30.01 1016.8
2:53 pm CST S 12.7 10.00 Fair -- 44.0 30.9 60% 38 NA 30.00 1016.6
1:53 pm CST SW 10.4 10.00 Fair -- 45.0 30.9 58% 40 NA 29.99 1016.3
12:53 pm CST SW 11.5 10.00 Fair -- 45.0 30.9 58% 39 NA 29.99 1016.1
11:53 am CST S 6.9 10.00 Fair -- 41.0 32.0 70% 36 NA 29.97 1015.7
10:53 am CST S 9.2 10.00 Fair -- 39.0 32.0 76% 33 NA 29.96 1015.3
9:53 am CST S 10.4 9.00 Fair -- 37.0 30.0 76% 30 NA 29.93 1014.4
8:53 am CST S 6.9 6.00 Fair with Haze -- 34.0 28.9 82% 28 NA 29.91 1013.8
7:53 am CST S 8.1 4.00 Fog/Mist -- 32.0 28.0 85% 25 NA 29.89 1013.0
6:53 am CST SW 6.9 3.00 Fog/Mist -- 31.0 28.0 89% 24 NA 29.84 1011.3

Regional Weather Observation


Fond Du Lac County Airport, WI (KFLD)

Fog/Mist
36.0 F

Appleton-Outagamie, WI (KATW)

Fog
32.0 F

Juneau, Dodge County Airport, WI (KUNU)

Fog/Mist
35.0 F

Wautoma, Wautoma Municipal Airport, WI (KY50)

Fog/Mist
30.0 F

Waupaca Municipal Airport, WI (KPCZ)

Fog/Mist
32.0 F

Green Bay, Austin Straubel International Airport, WI (KGRB)

Fog
33.0 F
Advertise Here

Advertise Here